Regional Weather Roundup
Issued by NWS

Home | Current Version | Previous Version | Graphics & Text | Print | Product List | Glossary On
Versions: 1 2 3 4 5 6 7 8 9 10 11 12 13 14 15 16 17 18 19 20 21 22 23 24 25 26 27 28
000
ASUS45 KBOI 230210
RWRID
WEATHER ROUNDUP FOR IDAHO
NATIONAL WEATHER SERVICE BOISE ID
800 PM MDT TUE APR 22 2014

NOTE: "FAIR" INDICATES FEW OR NO CLOUDS BELOW 12000 FEET
WITH NO SIGNIFICANT WEATHER AND/OR OBSTRUCTIONS TO VISIBILITY

IDZ012-014-230300-
SOUTHWEST IDAHO


CITY           SKY/WX    TMP DP  RH WIND       PRES   REMARKS
BOISE          CLOUDY    48  38  68 NW13      29.80R
CALDWELL       CLOUDY    45  30  57 NW20G25   29.85R
MOUNTAIN HOME  DRIZZLE   45  44  97 NW31G41   29.80R
$$

IDZ016-017-230300-
SOUTHCENTRAL IDAHO


CITY           SKY/WX    TMP DP  RH WIND       PRES   REMARKS
BURLEY         CLOUDY    39  37  92 S14       29.75S WCI  31
JEROME         CLOUDY    42  39  89 S13       29.74F
TWIN FALLS     CLOUDY    43  36  76 S14       29.75S
$$

IDZ019>023-230300-
SOUTHEAST IDAHO


CITY           SKY/WX    TMP DP  RH WIND       PRES   REMARKS
IDAHO FALLS    LGT RAIN  42  38  85 SW31G41   29.66R
POCATELLO      LGT RAIN  39  37  92 SW21G28   29.73S WCI  29
REXBURG        CLOUDY    42  37  82 S20G31    29.63R
$$

IDZ006-010-011-018-031-032-230300-
CENTRAL IDAHO MOUNTAINS


CITY           SKY/WX    TMP DP  RH WIND       PRES   REMARKS
MCCALL         CLOUDY    33  27  78 N6        29.78R WCI  28
HAILEY         CLOUDY    39  36  87 SE15G23   29.68S WCI  31
STANLEY          N/A     33  30  88 VRB3      29.71S
SALMON         CLOUDY    43  39  87 SW8       29.64R
CHALLIS        LGT RAIN  40  35  83 NE5       29.64F
$$

IDZ002-004-006-007-026-230300-
NORTHERN IDAHO


CITY           SKY/WX    TMP DP  RH WIND       PRES   REMARKS
LEWISTON       CLOUDY    52  25  35 W18G24    29.80S
LOWELL         NOT AVBL
COEUR D`ALENE  CLOUDY    46  41  81 S8        29.74F
MULLAN PASS    CLOUDY    29  28  96 NW8G20    29.69S WCI  21
$$



USA.gov is the U.S. government's official web portal to all federal, state and local government web resources and services.